Wind_Speed
28 28 27 28 28 29 30 30 31 31 31 31 31 32 32 31 31 32 33 33 34 34 35 35 35 35 35 35 36 37 37 37 37 37 37 37 38 39
29 29 29 29 29 29 29 30 31 31 30 31 31 31 31 31 32 32 32 33 34 34 33 33 34 35 35 34 35 35 35 36 36 36 36 36 37 37
28 29 29 28 29 29 29 29 30 30 30 30 31 31 31 31 32 33 33 33 33 33 33 33 34 34 34 34 33 34 35 35 35 35 35 35 35 34
27 27 27 28 28 29 29 29 29 29 30 30 31 32 32 31 32 32 33 32 32 32 32 32 33 32 32 33 33 33 33 33 33 33 33 33 33 32
25 26 26 26 27 27 27 28 28 28 28 29 30 30 30 30 30 31 30 30 30 31 31 31 31 30 31 31 30 30 30 31 31 31 31 30 30 29
23 23 23 23 24 26 26 26 26 27 27 28 28 28 28 29 29 29 29 29 28 28 28 29 29 29 29 28 28 28 28 28 29 29 28 28 27 27
20 20 21 21 22 23 24 24 24 24 25 25 25 25 26 25 25 25 26 26 25 25 26 27 27 28 27 26 26 26 27 27 27 27 26 26 26 25
18 18 18 19 20 20 20 20 21 21 21 22 22 21 21 21 21 21 21 22 23 22 23 23 23 24 24 24 24 25 25 25 25 24 24 23 23 22
16 16 16 16 16 16 16 17 17 17 17 17 18 17 17 17 18 18 18 18 19 19 20 21 21 21 21 22 22 22 22 22 21 21 20 20 20 20
13 13 12 12 13 13 13 13 13 14 14 14 15 14 14 14 15 16 16 17 17 17 18 19 19 19 19 19 19 19 18 18 17 17 17 17 18 18
10 10 10 10 10 10 10 10 11 11 11 11 11 11 12 13 13 14 14 14 15 16 16 16 16 16 16 15 15 15 15 15 16 16 16 16 16 16
7 6 6 7 7 7 6 7 7 7 8 9 9 9 9 9 10 10 11 12 12 13 13 13 13 13 12 13 13 13 13 14 14 14 14 14 14 15
3 3 2 3 3 4 5 5 5 5 6 6 6 6 6 6 7 8 9 10 10 10 10 10 10 10 11 11 11 11 12 12 12 13 13 13 14 15
2 2 3 4 5 5 5 4 3 3 3 3 3 2 3 3 4 5 6 7 7 7 7 8 8 9 9 9 10 10 10 10 11 12 12 13 14 15
5 6 7 8 7 6 6 5 4 4 4 3 2 1 1 0 2 2 3 4 5 6 6 6 7 7 8 8 8 9 9 10 11 12 13 14 15 15
9 9 9 9 9 9 8 7 6 6 6 5 5 4 3 2 2 2 2 3 3 4 4 5 6 6 6 6 7 8 9 10 11 13 14 15 15 16
10 11 10 10 11 10 9 9 9 9 8 7 6 5 5 4 4 4 4 3 3 3 4 5 5 5 6 7 8 9 10 11 13 14 14 15 16 17
12 11 11 12 12 12 11 10 10 9 8 7 6 6 5 5 5 5 5 5 4 5 5 5 5 6 7 8 9 10 11 12 13 14 15 16 17 19
13 13 12 12 12 11 10 9 8 8 7 7 6 6 6 6 6 5 5 5 6 6 6 6 6 7 8 9 11 12 13 14 15 16 17 18 19 19
14 14 13 13 12 11 10 9 9 8 8 8 7 7 7 6 6 6 6 7 7 7 7 8 8 9 10 11 12 14 15 16 17 18 18 19 20 21
15 14 13 12 11 11 10 10 10 9 9 9 8 8 7 7 7 7 7 7 8 8 9 10 10 11 13 14 15 16 17 18 19 20 21 21 22 22
15 14 13 12 12 11 10 10 9 9 9 9 9 8 8 8 8 8 8 9 9 10 11 11 13 14 15 16 17 18 19 20 21 22 23 24 24 24
13 13 12 12 12 11 10 10 10 9 9 10 10 10 10 10 10 10 10 11 11 12 13 14 15 16 17 18 19 20 21 22 23 24 25 26 27 27
Wind_Direction
266 267 265 263 262 262 260 260 260 260 260 260 260 260 260 260 258 259 261 262 263 265 265 266 268 268 269 270 272 273 274 275 275 276 278 278 278 279
266 265 264 262 261 261 260 259 259 258 259 260 261 261 260 259 261 262 263 264 265 265 265 265 265 266 269 270 272 273 274 273 274 276 277 278 278 278
268 266 264 263 262 261 259 259 258 258 259 259 259 260 259 260 261 262 263 265 266 267 266 267 267 268 271 272 273 273 273 273 274 276 277 277 279 279
270 268 265 263 261 260 260 258 259 258 258 257 257 258 258 259 260 261 262 264 265 266 266 266 266 267 269 270 273 272 272 273 274 276 276 276 278 279
271 269 266 263 261 260 260 259 259 259 259 258 258 258 257 258 259 260 261 263 263 263 263 263 264 266 269 271 272 272 272 273 274 274 276 277 278 279
271 269 267 265 261 259 259 259 258 257 257 257 257 257 257 257 258 260 260 261 261 262 261 261 263 264 266 268 269 271 272 274 275 276 277 277 277 278
270 268 268 266 264 261 259 258 257 256 256 257 257 257 257 256 258 259 259 260 260 259 259 260 261 262 265 268 271 272 273 274 276 277 278 278 279 279
271 268 266 265 263 259 258 257 255 254 255 255 255 255 256 257 258 258 259 260 259 259 259 261 262 264 266 268 271 273 275 276 277 277 278 279 278 279
271 269 265 263 260 257 255 255 253 252 252 251 253 255 258 259 257 256 257 258 258 259 260 262 264 267 267 269 271 272 275 278 278 278 278 279 279 280
270 268 262 260 258 254 251 250 250 249 250 252 252 252 256 257 258 258 256 256 258 260 263 265 267 268 270 271 272 273 276 277 277 277 278 277 279 281
269 267 260 259 255 250 246 242 241 241 244 249 250 254 258 260 260 259 258 259 260 262 263 266 268 271 271 270 272 274 275 278 280 282 283 284 284 285
273 263 258 258 249 235 227 225 227 232 238 244 250 255 256 257 259 261 264 264 265 266 267 271 271 269 272 272 272 275 276 279 281 284 286 287 288 289
268 232 233 219 190 192 191 196 210 226 232 238 245 249 255 260 263 267 268 267 270 272 273 275 275 275 277 276 278 279 281 282 284 286 288 290 292 293
111 133 139 145 142 146 150 155 163 177 194 214 225 238 257 274 278 277 274 273 276 279 279 279 277 277 279 281 284 283 283 285 287 289 291 293 296 298
97 105 112 120 119 117 117 117 115 112 110 106 103 99 81 333 306 299 292 290 287 285 285 284 282 282 283 285 288 289 290 292 295 296 297 298 300 301
94 96 100 102 107 103 102 101 100 98 97 92 85 80 70 51 27 12 357 340 325 311 302 297 295 292 291 294 297 299 300 301 301 301 301 301 301 301
93 94 97 100 103 101 97 95 93 90 86 81 76 68 59 51 43 35 24 11 356 341 329 322 313 311 308 305 305 305 306 306 305 304 304 303 302 302
92 90 94 94 93 92 91 90 85 82 77 70 64 59 53 43 33 22 13 6 357 349 343 338 333 325 317 314 313 313 313 312 311 309 308 306 304 303
90 89 92 93 92 90 85 81 76 72 66 59 52 47 41 32 26 19 12 6 1 354 346 339 333 328 323 317 316 316 314 313 313 311 309 307 306 304
90 89 89 89 87 83 77 72 67 62 57 52 48 42 35 28 22 16 9 2 355 347 340 334 328 323 320 317 315 314 313 313 313 312 310 309 308 307
89 86 84 82 78 74 71 66 62 57 52 47 41 35 28 22 15 9 2 353 347 342 336 331 327 323 320 317 315 314 313 313 313 312 311 310 309 307
83 81 79 76 72 70 66 62 58 53 47 41 35 28 21 15 9 3 356 350 344 339 334 329 325 321 319 317 315 314 313 313 313 313 312 310 309 307
79 76 73 72 68 62 58 53 49 43 38 33 27 21 16 10 4 358 353 347 342 337 332 328 325 323 320 318 316 314 313 312 312 312 311 309 308 307
Height
5766 5766 5767 5768 5769 5770 5771 5772 5774 5775 5776 5777 5778 5779 5779 5780 5781 5782 5783 5783 5783 5783 5783 5783 5782 5782 5782 5782 5781 5780 5779 5778 5777 5776 5774 5773 5771 5769
5758 5758 5759 5760 5760 5761 5762 5764 5765 5766 5767 5768 5769 5770 5771 5772 5773 5773 5774 5774 5774 5774 5774 5774 5774 5774 5773 5772 5772 5771 5770 5769 5767 5766 5765 5763 5761 5759
5749 5749 5750 5751 5752 5753 5754 5755 5756 5758 5759 5760 5760 5761 5762 5763 5764 5764 5765 5765 5765 5765 5765 5765 5765 5765 5764 5764 5763 5762 5761 5760 5758 5757 5755 5753 5752 5750
5740 5741 5741 5742 5743 5744 5745 5746 5747 5749 5750 5751 5751 5752 5753 5754 5755 5756 5756 5756 5757 5757 5757 5756 5756 5756 5755 5755 5754 5753 5752 5751 5749 5748 5746 5745 5743 5741
5732 5733 5733 5734 5735 5736 5737 5738 5739 5740 5741 5742 5743 5744 5744 5745 5746 5747 5747 5747 5748 5748 5748 5748 5748 5748 5747 5746 5746 5745 5744 5742 5741 5739 5738 5736 5734 5733
5725 5725 5725 5726 5727 5728 5729 5730 5731 5732 5733 5734 5734 5735 5736 5737 5738 5738 5739 5739 5739 5739 5739 5739 5740 5739 5739 5738 5738 5737 5736 5735 5733 5732 5730 5728 5727 5725
5718 5718 5718 5719 5719 5720 5721 5722 5723 5724 5725 5726 5727 5727 5728 5729 5730 5730 5731 5731 5731 5731 5732 5732 5732 5732 5731 5731 5730 5729 5728 5727 5726 5724 5723 5721 5720 5718
5711 5711 5711 5712 5713 5713 5714 5715 5717 5718 5719 5719 5720 5721 5722 5722 5723 5724 5724 5724 5725 5725 5725 5725 5725 5725 5724 5724 5723 5722 5721 5720 5719 5717 5716 5715 5713 5712
5705 5705 5706 5706 5707 5708 5709 5710 5711 5712 5713 5714 5715 5715 5716 5716 5717 5718 5718 5719 5719 5719 5719 5719 5719 5718 5718 5717 5717 5716 5715 5714 5713 5711 5710 5709 5707 5706
5700 5700 5701 5701 5702 5703 5704 5705 5706 5707 5709 5710 5711 5711 5712 5712 5713 5714 5714 5714 5714 5714 5714 5714 5713 5713 5713 5712 5711 5710 5709 5708 5707 5706 5705 5703 5702 5701
5696 5697 5697 5698 5698 5699 5700 5702 5703 5704 5705 5706 5707 5708 5708 5709 5709 5710 5710 5710 5710 5709 5709 5709 5709 5708 5707 5707 5706 5706 5705 5704 5703 5701 5700 5699 5697 5696
5694 5694 5694 5695 5696 5697 5698 5699 5700 5702 5703 5704 5704 5705 5705 5706 5706 5706 5706 5706 5706 5706 5705 5705 5705 5704 5704 5703 5702 5702 5701 5700 5699 5697 5696 5695 5693 5692
5692 5692 5693 5694 5694 5695 5697 5698 5699 5700 5701 5702 5702 5703 5703 5703 5704 5704 5703 5703 5703 5703 5703 5702 5702 5701 5701 5700 5699 5698 5697 5696 5695 5694 5693 5691 5690 5688
5692 5692 5693 5694 5695 5695 5697 5697 5699 5699 5700 5701 5701 5702 5702 5702 5702 5702 5701 5701 5701 5701 5700 5700 5699 5699 5698 5697 5696 5695 5694 5693 5692 5691 5689 5688 5686 5684
5693 5693 5694 5695 5695 5696 5697 5698 5699 5700 5700 5701 5701 5701 5702 5701 5701 5701 5700 5700 5699 5699 5698 5698 5697 5697 5696 5695 5694 5693 5692 5691 5689 5688 5686 5684 5682 5680
5695 5696 5696 5696 5697 5698 5699 5700 5700 5701 5701 5702 5702 5702 5702 5701 5701 5700 5700 5699 5698 5698 5697 5696 5695 5695 5694 5693 5692 5691 5690 5688 5687 5685 5683 5681 5679 5676
5699 5699 5699 5700 5700 5700 5701 5702 5702 5703 5703 5703 5703 5703 5702 5702 5701 5700 5700 5699 5698 5697 5696 5695 5694 5693 5692 5691 5690 5689 5687 5686 5684 5682 5680 5677 5675 5672
5702 5702 5702 5702 5703 5704 5704 5705 5705 5705 5705 5704 5704 5704 5703 5702 5702 5701 5700 5699 5698 5697 5696 5695 5693 5692 5691 5690 5688 5687 5685 5683 5681 5678 5676 5673 5671 5668
5705 5706 5706 5706 5707 5707 5708 5708 5707 5707 5707 5706 5705 5705 5704 5703 5702 5701 5700 5699 5698 5696 5695 5694 5693 5691 5690 5688 5686 5684 5682 5680 5677 5675 5672 5669 5666 5664
5710 5710 5710 5711 5711 5711 5710 5710 5710 5709 5708 5708 5707 5706 5705 5704 5703 5701 5700 5699 5697 5696 5694 5693 5691 5689 5688 5686 5684 5681 5678 5676 5673 5671 5668 5664 5661 5658
5714 5714 5714 5714 5714 5714 5713 5713 5712 5711 5710 5709 5708 5707 5706 5704 5703 5701 5700 5698 5697 5695 5693 5691 5689 5687 5685 5683 5680 5678 5675 5672 5669 5666 5663 5659 5656 5653
5719 5719 5718 5718 5717 5717 5716 5715 5714 5713 5712 5711 5709 5708 5706 5705 5703 5701 5700 5698 5696 5694 5692 5689 5687 5684 5682 5679 5676 5674 5671 5667 5664 5660 5656 5653 5650 5646
5723 5723 5722 5721 5720 5719 5718 5717 5716 5715 5714 5712 5711 5709 5707 5705 5703 5701 5699 5697 5695 5692 5690 5687 5684 5681 5678 5675 5672 5669 5666 5662 5659 5655 5651 5647 5643 5640